Year,Month,Day,Hour,Minute,Value (Times are PST for windgust in km/hr)
2013,03,20,00,00,20.90
2013,03,20,00,01,22.50
2013,03,20,00,02,27.40
2013,03,20,00,03,24.20
2013,03,20,00,04,24.20
2013,03,20,00,05,20.90
2013,03,20,00,06,22.50
2013,03,20,00,07,20.90
2013,03,20,00,08,17.70
2013,03,20,00,09,25.70
2013,03,20,00,10,17.70
2013,03,20,00,11,20.90
2013,03,20,00,12,27.40
2013,03,20,00,13,24.20
2013,03,20,00,14,19.30
2013,03,20,00,15,25.70
2013,03,20,00,16,22.50
2013,03,20,00,17,24.20
2013,03,20,00,18,22.50
2013,03,20,00,19,24.20
2013,03,20,00,20,22.50
2013,03,20,00,21,16.10
2013,03,20,00,22,24.20
2013,03,20,00,23,25.70
2013,03,20,00,24,24.20
2013,03,20,00,25,20.90
2013,03,20,00,26,19.30
2013,03,20,00,27,24.20
2013,03,20,00,28,24.20
2013,03,20,00,29,20.90
2013,03,20,00,30,22.50
2013,03,20,00,31,25.70
2013,03,20,00,32,20.90
2013,03,20,00,33,24.20
2013,03,20,00,34,25.70
2013,03,20,00,35,25.70
2013,03,20,00,36,22.50
2013,03,20,00,37,24.20
2013,03,20,00,38,22.50
2013,03,20,00,39,20.90
2013,03,20,00,40,25.70
2013,03,20,00,41,17.70
2013,03,20,00,42,20.90
2013,03,20,00,43,19.30
2013,03,20,00,44,20.90
2013,03,20,00,45,20.90
2013,03,20,00,46,27.40
2013,03,20,00,47,25.70
2013,03,20,00,48,24.20
2013,03,20,00,49,24.20
2013,03,20,00,50,25.70
2013,03,20,00,51,30.60
2013,03,20,00,52,20.90
2013,03,20,00,53,24.20
2013,03,20,00,54,25.70
2013,03,20,00,55,22.50
2013,03,20,00,56,24.20
2013,03,20,00,57,24.20
2013,03,20,00,58,19.30
2013,03,20,00,59,17.70
2013,03,20,01,00,24.20
2013,03,20,01,01,27.40
2013,03,20,01,02,25.70
2013,03,20,01,03,19.30
2013,03,20,01,04,16.10
2013,03,20,01,05,25.70
2013,03,20,01,06,27.40
2013,03,20,01,07,25.70
2013,03,20,01,08,24.20
2013,03,20,01,09,22.50
2013,03,20,01,10,27.40
2013,03,20,01,11,24.20
2013,03,20,01,12,24.20
2013,03,20,01,13,22.50
2013,03,20,01,14,24.20
2013,03,20,01,15,17.70
2013,03,20,01,16,16.10
2013,03,20,01,17,16.10
2013,03,20,01,18,16.10
2013,03,20,01,19,16.10
2013,03,20,01,20,22.50
2013,03,20,01,21,25.70
2013,03,20,01,22,24.20
2013,03,20,01,23,19.30
2013,03,20,01,24,20.90
2013,03,20,01,25,16.10
2013,03,20,01,26,20.90
2013,03,20,01,27,24.20
2013,03,20,01,28,27.40
2013,03,20,01,29,25.70
2013,03,20,01,30,20.90
2013,03,20,01,31,22.50
2013,03,20,01,32,19.30
2013,03,20,01,33,25.70
2013,03,20,01,34,22.50
2013,03,20,01,35,20.90
2013,03,20,01,36,16.10
2013,03,20,01,37,20.90
2013,03,20,01,38,24.20
2013,03,20,01,39,24.20
2013,03,20,01,40,20.90
2013,03,20,01,41,19.30
2013,03,20,01,42,24.20
2013,03,20,01,43,22.50
2013,03,20,01,44,19.30
2013,03,20,01,45,20.90
2013,03,20,01,46,24.20
2013,03,20,01,47,17.70
2013,03,20,01,48,24.20
2013,03,20,01,49,17.70
2013,03,20,01,50,24.20
2013,03,20,01,51,20.90
2013,03,20,01,52,16.10
2013,03,20,01,53,14.50
2013,03,20,01,54,22.50
2013,03,20,01,55,19.30
2013,03,20,01,56,19.30
2013,03,20,01,57,16.10
2013,03,20,01,58,19.30
2013,03,20,01,59,22.50
2013,03,20,02,00,20.90
2013,03,20,02,01,24.20
2013,03,20,02,02,20.90
2013,03,20,02,03,24.20
2013,03,20,02,04,24.20
2013,03,20,02,05,24.20
2013,03,20,02,06,27.40
2013,03,20,02,07,24.20
2013,03,20,02,08,20.90
2013,03,20,02,09,25.70
2013,03,20,02,10,24.20
2013,03,20,02,11,24.20
2013,03,20,02,12,25.70
2013,03,20,02,13,25.70
2013,03,20,02,14,22.50
2013,03,20,02,15,25.70
2013,03,20,02,16,24.20
2013,03,20,02,17,17.70
2013,03,20,02,18,19.30
2013,03,20,02,19,22.50
2013,03,20,02,20,22.50
2013,03,20,02,21,22.50
2013,03,20,02,22,19.30
2013,03,20,02,23,25.70
2013,03,20,02,24,24.20
2013,03,20,02,25,25.70
2013,03,20,02,26,29.00
2013,03,20,02,27,29.00
2013,03,20,02,28,22.50
2013,03,20,02,29,20.90
2013,03,20,02,30,25.70
2013,03,20,02,31,22.50
2013,03,20,02,32,25.70
2013,03,20,02,33,24.20
2013,03,20,02,34,22.50
2013,03,20,02,35,17.70
2013,03,20,02,36,22.50
2013,03,20,02,37,25.70
2013,03,20,02,38,25.70
2013,03,20,02,39,25.70
2013,03,20,02,40,29.00
2013,03,20,02,41,32.20
2013,03,20,02,42,29.00
2013,03,20,02,43,30.60
2013,03,20,02,44,29.00
2013,03,20,02,45,35.40
2013,03,20,02,46,32.20
2013,03,20,02,47,33.80
2013,03,20,02,48,33.80
2013,03,20,02,49,32.20
2013,03,20,02,50,29.00
2013,03,20,02,51,37.00
2013,03,20,02,52,30.60
2013,03,20,02,53,29.00
2013,03,20,02,54,27.40
2013,03,20,02,55,29.00
2013,03,20,02,56,25.70
2013,03,20,02,57,29.00
2013,03,20,02,58,24.20
2013,03,20,02,59,25.70
2013,03,20,03,00,27.40
2013,03,20,03,01,22.50
2013,03,20,03,02,30.60
2013,03,20,03,03,29.00
2013,03,20,03,04,29.00
2013,03,20,03,05,35.40
2013,03,20,03,06,24.20
2013,03,20,03,07,20.90
2013,03,20,03,08,27.40
2013,03,20,03,09,22.50
2013,03,20,03,10,30.60
2013,03,20,03,11,25.70
2013,03,20,03,12,25.70
2013,03,20,03,13,32.20
2013,03,20,03,14,27.40
2013,03,20,03,15,25.70
2013,03,20,03,16,22.50
2013,03,20,03,17,27.40
2013,03,20,03,18,24.20
2013,03,20,03,19,25.70
2013,03,20,03,20,25.70
2013,03,20,03,21,22.50
2013,03,20,03,22,33.80
2013,03,20,03,23,32.20
2013,03,20,03,24,35.40
2013,03,20,03,25,32.20
2013,03,20,03,26,33.80
2013,03,20,03,27,33.80
2013,03,20,03,28,22.50
2013,03,20,03,29,29.00
2013,03,20,03,30,29.00
2013,03,20,03,31,35.40
2013,03,20,03,32,25.70
2013,03,20,03,33,33.80
2013,03,20,03,34,33.80
2013,03,20,03,35,25.70
2013,03,20,03,36,27.40
2013,03,20,03,37,32.20
2013,03,20,03,38,25.70
2013,03,20,03,39,35.40
2013,03,20,03,40,29.00
2013,03,20,03,41,27.40
2013,03,20,03,42,22.50
2013,03,20,03,43,27.40
2013,03,20,03,44,29.00
2013,03,20,03,45,30.60
2013,03,20,03,46,38.60
2013,03,20,03,47,29.00
2013,03,20,03,48,30.60
2013,03,20,03,49,29.00
2013,03,20,03,50,35.40
2013,03,20,03,51,33.80
2013,03,20,03,52,27.40
2013,03,20,03,53,25.70
2013,03,20,03,54,30.60
2013,03,20,03,55,35.40
2013,03,20,03,56,30.60
2013,03,20,03,57,27.40
2013,03,20,03,58,22.50
2013,03,20,03,59,22.50
2013,03,20,04,00,25.70
2013,03,20,04,01,27.40
2013,03,20,04,02,29.00
2013,03,20,04,03,25.70
2013,03,20,04,04,25.70
2013,03,20,04,05,27.40
2013,03,20,04,06,27.40
2013,03,20,04,07,25.70
2013,03,20,04,08,20.90
2013,03,20,04,09,29.00
2013,03,20,04,10,27.40
2013,03,20,04,11,25.70
2013,03,20,04,12,37.00
2013,03,20,04,13,37.00
2013,03,20,04,14,33.80
2013,03,20,04,15,35.40
2013,03,20,04,16,25.70
2013,03,20,04,17,24.20
2013,03,20,04,18,30.60
2013,03,20,04,19,27.40
2013,03,20,04,20,30.60
2013,03,20,04,21,25.70
2013,03,20,04,22,29.00
2013,03,20,04,23,24.20
2013,03,20,04,24,33.80
2013,03,20,04,25,27.40
2013,03,20,04,26,29.00
2013,03,20,04,27,25.70
2013,03,20,04,28,32.20
2013,03,20,04,29,29.00
2013,03,20,04,30,24.20
2013,03,20,04,31,24.20
2013,03,20,04,32,27.40
2013,03,20,04,33,29.00
2013,03,20,04,34,29.00
2013,03,20,04,35,24.20
2013,03,20,04,36,29.00
2013,03,20,04,37,27.40
2013,03,20,04,38,30.60
2013,03,20,04,39,24.20
2013,03,20,04,40,33.80
2013,03,20,04,41,29.00
2013,03,20,04,42,29.00
2013,03,20,04,43,37.00
2013,03,20,04,44,29.00
2013,03,20,04,45,29.00
2013,03,20,04,46,38.60
2013,03,20,04,47,25.70
2013,03,20,04,48,27.40
2013,03,20,04,49,29.00
2013,03,20,04,50,29.00
2013,03,20,04,51,32.20
2013,03,20,04,52,29.00
2013,03,20,04,53,27.40
2013,03,20,04,54,25.70
2013,03,20,04,55,27.40
2013,03,20,04,56,25.70
2013,03,20,04,57,22.50
2013,03,20,04,58,30.60
2013,03,20,04,59,32.20
2013,03,20,05,00,32.20
2013,03,20,05,01,30.60
2013,03,20,05,02,32.20
2013,03,20,05,03,35.40
2013,03,20,05,04,33.80
2013,03,20,05,05,32.20
2013,03,20,05,06,25.70
2013,03,20,05,07,29.00
2013,03,20,05,08,30.60
2013,03,20,05,09,29.00
2013,03,20,05,10,35.40
2013,03,20,05,11,30.60
2013,03,20,05,12,32.20
2013,03,20,05,13,38.60
2013,03,20,05,14,48.30
2013,03,20,05,15,33.80
2013,03,20,05,16,35.40
2013,03,20,05,17,40.20
2013,03,20,05,18,37.00
2013,03,20,05,19,40.20
2013,03,20,05,20,40.20
2013,03,20,05,21,40.20
2013,03,20,05,22,40.20
2013,03,20,05,23,35.40
2013,03,20,05,24,35.40
2013,03,20,05,25,37.00
2013,03,20,05,26,35.40
2013,03,20,05,27,40.20
2013,03,20,05,28,33.80
2013,03,20,05,29,33.80
2013,03,20,05,30,37.00
2013,03,20,05,31,41.80
2013,03,20,05,32,45.10
2013,03,20,05,33,40.20
2013,03,20,05,34,35.40
2013,03,20,05,35,38.60
2013,03,20,05,36,41.80
2013,03,20,05,37,33.80
2013,03,20,05,38,37.00
2013,03,20,05,39,38.60
2013,03,20,05,40,37.00
2013,03,20,05,41,38.60
2013,03,20,05,42,33.80
2013,03,20,05,43,40.20
2013,03,20,05,44,35.40
2013,03,20,05,45,32.20
2013,03,20,05,46,35.40
2013,03,20,05,47,32.20
2013,03,20,05,48,30.60
2013,03,20,05,49,33.80
2013,03,20,05,50,25.70
2013,03,20,05,51,20.90
2013,03,20,05,52,20.90
2013,03,20,05,53,35.40
2013,03,20,05,54,40.20
2013,03,20,05,55,43.50
2013,03,20,05,56,41.80
2013,03,20,05,57,35.40
2013,03,20,05,58,38.60
2013,03,20,05,59,38.60
2013,03,20,06,00,37.00
2013,03,20,06,01,41.80
2013,03,20,06,02,41.80
2013,03,20,06,03,41.80
2013,03,20,06,04,40.20
2013,03,20,06,05,37.00
2013,03,20,06,06,43.50
2013,03,20,06,07,40.20
2013,03,20,06,08,48.30
2013,03,20,06,09,37.00
2013,03,20,06,10,49.90
2013,03,20,06,11,49.90
2013,03,20,06,12,43.50
2013,03,20,06,13,43.50
2013,03,20,06,14,38.60
2013,03,20,06,15,38.60
2013,03,20,06,16,37.00
2013,03,20,06,17,40.20
2013,03,20,06,18,37.00
2013,03,20,06,19,38.60
2013,03,20,06,20,38.60
2013,03,20,06,21,35.40
2013,03,20,06,22,32.20
2013,03,20,06,23,37.00
2013,03,20,06,24,32.20
2013,03,20,06,25,37.00
2013,03,20,06,26,35.40
2013,03,20,06,27,27.40
2013,03,20,06,28,24.20
2013,03,20,06,29,30.60
2013,03,20,06,30,24.20
2013,03,20,06,31,27.40
2013,03,20,06,32,24.20
2013,03,20,06,33,22.50
2013,03,20,06,34,29.00
2013,03,20,06,35,37.00
2013,03,20,06,36,33.80
2013,03,20,06,37,27.40
2013,03,20,06,38,29.00
2013,03,20,06,39,24.20
2013,03,20,06,40,29.00
2013,03,20,06,41,24.20
2013,03,20,06,42,33.80
2013,03,20,06,43,25.70
2013,03,20,06,44,22.50
2013,03,20,06,45,22.50
2013,03,20,06,46,14.50
2013,03,20,06,47,19.30
2013,03,20,06,48,24.20
2013,03,20,06,49,25.70
2013,03,20,06,50,24.20
2013,03,20,06,51,20.90
2013,03,20,06,52,17.70
2013,03,20,06,53,29.00
2013,03,20,06,54,22.50
2013,03,20,06,55,25.70
2013,03,20,06,56,30.60
2013,03,20,06,57,27.40
2013,03,20,06,58,20.90
2013,03,20,06,59,24.20
2013,03,20,07,00,22.50
2013,03,20,07,01,22.50
2013,03,20,07,02,25.70
2013,03,20,07,03,24.20
2013,03,20,07,04,24.20
2013,03,20,07,05,20.90
2013,03,20,07,06,24.20
2013,03,20,07,07,19.30
2013,03,20,07,08,20.90
2013,03,20,07,09,16.10
2013,03,20,07,10,14.50
2013,03,20,07,11,17.70
2013,03,20,07,12,20.90
2013,03,20,07,13,16.10
2013,03,20,07,14,16.10
2013,03,20,07,15,16.10
2013,03,20,07,16,16.10
2013,03,20,07,17,14.50
2013,03,20,07,18,16.10
2013,03,20,07,19,16.10
2013,03,20,07,20,12.90
2013,03,20,07,21,17.70
2013,03,20,07,22,20.90
2013,03,20,07,23,17.70
2013,03,20,07,24,12.90
2013,03,20,07,25,20.90
2013,03,20,07,26,20.90
2013,03,20,07,27,24.20
2013,03,20,07,28,25.70
2013,03,20,07,29,29.00
2013,03,20,07,30,24.20
2013,03,20,07,31,24.20
2013,03,20,07,32,24.20
2013,03,20,07,33,24.20
2013,03,20,07,34,25.70
2013,03,20,07,35,25.70
2013,03,20,07,36,25.70
2013,03,20,07,37,27.40
2013,03,20,07,38,22.50
2013,03,20,07,39,25.70
2013,03,20,07,40,27.40
2013,03,20,07,41,24.20
2013,03,20,07,42,22.50
2013,03,20,07,43,24.20
2013,03,20,07,44,17.70
2013,03,20,07,45,27.40
2013,03,20,07,46,24.20
2013,03,20,07,47,22.50
2013,03,20,07,48,24.20
2013,03,20,07,49,22.50
2013,03,20,07,50,22.50
2013,03,20,07,51,25.70
2013,03,20,07,52,27.40
2013,03,20,07,53,22.50
2013,03,20,07,54,24.20
2013,03,20,07,55,24.20
2013,03,20,07,56,24.20
2013,03,20,07,57,24.20
2013,03,20,07,58,22.50
2013,03,20,07,59,27.40
2013,03,20,08,00,24.20
2013,03,20,08,01,30.60
2013,03,20,08,02,29.00
2013,03,20,08,03,33.80
2013,03,20,08,04,30.60
2013,03,20,08,05,25.70
2013,03,20,08,06,30.60
2013,03,20,08,07,30.60
2013,03,20,08,08,29.00
2013,03,20,08,09,35.40
2013,03,20,08,10,29.00
2013,03,20,08,11,24.20
2013,03,20,08,12,27.40
2013,03,20,08,13,32.20
2013,03,20,08,14,25.70
2013,03,20,08,15,27.40
2013,03,20,08,16,27.40
2013,03,20,08,17,29.00
2013,03,20,08,18,22.50
2013,03,20,08,19,24.20
2013,03,20,08,20,25.70
2013,03,20,08,21,29.00
2013,03,20,08,22,29.00
2013,03,20,08,23,27.40
2013,03,20,08,24,24.20
2013,03,20,08,25,25.70
2013,03,20,08,26,22.50
2013,03,20,08,27,25.70
2013,03,20,08,28,20.90
2013,03,20,08,29,27.40
2013,03,20,08,30,22.50
2013,03,20,08,31,20.90
2013,03,20,08,32,24.20
2013,03,20,08,33,29.00
2013,03,20,08,34,30.60
2013,03,20,08,35,17.70
2013,03,20,08,36,22.50
2013,03,20,08,37,25.70
2013,03,20,08,38,37.00
2013,03,20,08,39,29.00
2013,03,20,08,40,29.00
2013,03,20,08,41,29.00
2013,03,20,08,42,29.00
2013,03,20,08,43,27.40
2013,03,20,08,44,25.70
2013,03,20,08,45,29.00
2013,03,20,08,46,30.60
2013,03,20,08,47,40.20
2013,03,20,08,48,29.00
2013,03,20,08,49,30.60
2013,03,20,08,50,35.40
2013,03,20,08,51,33.80
2013,03,20,08,52,35.40
2013,03,20,08,53,32.20
2013,03,20,08,54,38.60
2013,03,20,08,55,32.20
2013,03,20,08,56,35.40
2013,03,20,08,57,30.60
2013,03,20,08,58,38.60
2013,03,20,08,59,35.40
2013,03,20,09,00,35.40
2013,03,20,09,01,38.60
2013,03,20,09,02,40.20
2013,03,20,09,03,35.40
2013,03,20,09,04,38.60
2013,03,20,09,05,30.60
2013,03,20,09,06,40.20
2013,03,20,09,07,37.00
2013,03,20,09,08,27.40
2013,03,20,09,09,33.80
2013,03,20,09,10,37.00
2013,03,20,09,11,37.00
2013,03,20,09,12,33.80
2013,03,20,09,13,35.40
2013,03,20,09,14,37.00
2013,03,20,09,15,38.60
2013,03,20,09,16,40.20
2013,03,20,09,17,37.00
2013,03,20,09,18,37.00
2013,03,20,09,19,38.60
2013,03,20,09,20,41.80
2013,03,20,09,21,38.60
2013,03,20,09,22,35.40
2013,03,20,09,23,40.20
2013,03,20,09,24,41.80
2013,03,20,09,25,41.80
2013,03,20,09,26,30.60
2013,03,20,09,27,16.10
2013,03,20,09,28,24.20
2013,03,20,09,29,27.40
2013,03,20,09,30,20.90
2013,03,20,09,31,14.50
2013,03,20,09,32,25.70
2013,03,20,09,33,19.30
2013,03,20,09,34,14.50
2013,03,20,09,35,17.70
2013,03,20,09,36,19.30
2013,03,20,09,37,20.90
2013,03,20,09,38,22.50
2013,03,20,09,39,8.10
2013,03,20,09,40,8.10
2013,03,20,09,41,11.30
2013,03,20,09,42,14.50
2013,03,20,09,43,12.90
2013,03,20,09,44,11.30
2013,03,20,09,45,17.70
2013,03,20,09,46,25.70
2013,03,20,09,47,32.20
2013,03,20,09,48,32.20
2013,03,20,09,49,24.20
2013,03,20,09,50,24.20
2013,03,20,09,51,16.10
2013,03,20,09,52,20.90
2013,03,20,09,53,19.30
2013,03,20,09,54,9.60
2013,03,20,09,55,11.30
2013,03,20,09,56,8.10
2013,03,20,09,57,8.10
2013,03,20,09,58,20.90
2013,03,20,09,59,20.90
2013,03,20,10,00,17.70
2013,03,20,10,01,14.50
2013,03,20,10,02,8.10
2013,03,20,10,03,8.10
2013,03,20,10,04,27.40
2013,03,20,10,05,38.60
2013,03,20,10,06,12.90
2013,03,20,10,07,8.10
2013,03,20,10,08,19.30
2013,03,20,10,09,19.30
2013,03,20,10,10,37.00
2013,03,20,10,11,12.90
2013,03,20,10,12,4.80
2013,03,20,10,13,12.90
2013,03,20,10,14,16.10
2013,03,20,10,15,8.10
2013,03,20,10,16,11.30
2013,03,20,10,17,17.70
2013,03,20,10,18,12.90
2013,03,20,10,19,12.90
2013,03,20,10,20,12.90
2013,03,20,10,21,17.70
2013,03,20,10,22,12.90
2013,03,20,10,23,9.60
2013,03,20,10,24,6.40
2013,03,20,10,25,19.30
2013,03,20,10,26,12.90
2013,03,20,10,27,9.60
2013,03,20,10,28,20.90
2013,03,20,10,29,17.70
2013,03,20,10,30,12.90
2013,03,20,10,31,11.30
2013,03,20,10,32,9.60
2013,03,20,10,33,12.90
2013,03,20,10,34,11.30
2013,03,20,10,35,11.30
2013,03,20,10,36,19.30
2013,03,20,10,37,11.30
2013,03,20,10,38,11.30
2013,03,20,10,39,16.10
2013,03,20,10,40,16.10
2013,03,20,10,41,20.90
2013,03,20,10,42,16.10
2013,03,20,10,43,32.20
2013,03,20,10,44,11.30
2013,03,20,10,45,11.30
2013,03,20,10,46,11.30
2013,03,20,10,47,17.70
2013,03,20,10,48,27.40
2013,03,20,10,49,11.30
2013,03,20,10,50,11.30
2013,03,20,10,51,22.50
2013,03,20,10,52,12.90
2013,03,20,10,53,30.60
2013,03,20,10,54,53.10
2013,03,20,10,55,22.50
2013,03,20,10,56,11.30
2013,03,20,10,57,12.90
2013,03,20,10,58,12.90
2013,03,20,10,59,20.90
2013,03,20,11,00,22.50
2013,03,20,11,01,16.10
2013,03,20,11,02,20.90
2013,03,20,11,03,9.60
2013,03,20,11,04,25.70
2013,03,20,11,05,20.90
2013,03,20,11,06,20.90
2013,03,20,11,07,33.80
2013,03,20,11,08,29.00
2013,03,20,11,09,16.10
2013,03,20,11,10,17.70
2013,03,20,11,11,30.60
2013,03,20,11,12,33.80
2013,03,20,11,13,20.90
2013,03,20,11,14,8.10
2013,03,20,11,15,6.40
2013,03,20,11,16,6.40
2013,03,20,11,17,17.70
2013,03,20,11,18,9.60
2013,03,20,11,19,16.10
2013,03,20,11,20,9.60
2013,03,20,11,21,20.90
2013,03,20,11,22,33.80
2013,03,20,11,23,27.40
2013,03,20,11,24,19.30
2013,03,20,11,25,14.50
2013,03,20,11,26,12.90
2013,03,20,11,27,14.50
2013,03,20,11,28,12.90
2013,03,20,11,29,11.30
2013,03,20,11,30,22.50
2013,03,20,11,31,9.60
2013,03,20,11,32,16.10
2013,03,20,11,33,20.90
2013,03,20,11,34,19.30
2013,03,20,11,35,8.10
2013,03,20,11,36,19.30
2013,03,20,11,37,29.00
2013,03,20,11,38,25.70
2013,03,20,11,39,32.20
2013,03,20,11,40,22.50
2013,03,20,11,41,19.30
2013,03,20,11,42,19.30
2013,03,20,11,43,20.90
2013,03,20,11,44,24.20
2013,03,20,11,45,22.50
2013,03,20,11,46,22.50
2013,03,20,11,47,17.70
2013,03,20,11,48,24.20
2013,03,20,11,49,19.30
2013,03,20,11,50,19.30
2013,03,20,11,51,17.70
2013,03,20,11,52,30.60
2013,03,20,11,53,32.20
2013,03,20,11,54,27.40
2013,03,20,11,55,30.60
2013,03,20,11,56,25.70
2013,03,20,11,57,27.40
2013,03,20,11,58,14.50
2013,03,20,11,59,14.50
2013,03,20,12,00,19.30
2013,03,20,12,01,16.10
2013,03,20,12,02,14.50
2013,03,20,12,03,12.90
2013,03,20,12,04,9.60
2013,03,20,12,05,9.60
2013,03,20,12,06,9.60
2013,03,20,12,07,11.30
2013,03,20,12,08,33.80
2013,03,20,12,09,24.20
2013,03,20,12,10,17.70
2013,03,20,12,11,19.30
2013,03,20,12,12,20.90
2013,03,20,12,13,29.00
2013,03,20,12,14,17.70
2013,03,20,12,15,11.30
2013,03,20,12,16,25.70
2013,03,20,12,17,27.40
2013,03,20,12,18,17.70
2013,03,20,12,19,29.00
2013,03,20,12,20,29.00
2013,03,20,12,21,22.50
2013,03,20,12,22,19.30
2013,03,20,12,23,12.90
2013,03,20,12,24,27.40
2013,03,20,12,25,32.20
2013,03,20,12,26,32.20
2013,03,20,12,27,17.70
2013,03,20,12,28,25.70
2013,03,20,12,29,24.20
2013,03,20,12,30,40.20
2013,03,20,12,31,43.50
2013,03,20,12,32,41.80
2013,03,20,12,33,35.40
2013,03,20,12,34,32.20
2013,03,20,12,35,35.40
2013,03,20,12,36,22.50
2013,03,20,12,37,24.20
2013,03,20,12,38,29.00
2013,03,20,12,39,22.50
2013,03,20,12,40,16.10
2013,03,20,12,41,38.60
2013,03,20,12,42,25.70
2013,03,20,12,43,12.90
2013,03,20,12,44,32.20
2013,03,20,12,45,37.00
2013,03,20,12,46,30.60
2013,03,20,12,47,25.70
2013,03,20,12,48,33.80
2013,03,20,12,49,32.20
2013,03,20,12,50,29.00
2013,03,20,12,51,37.00
2013,03,20,12,52,37.00
2013,03,20,12,53,45.10
2013,03,20,12,54,25.70
2013,03,20,12,55,33.80
2013,03,20,12,56,40.20
2013,03,20,12,57,29.00
2013,03,20,12,58,45.10
2013,03,20,12,59,57.90
2013,03,20,13,00,29.00
2013,03,20,13,01,27.40
2013,03,20,13,02,57.90
2013,03,20,13,03,53.10
2013,03,20,13,04,27.40
2013,03,20,13,05,33.80
2013,03,20,13,06,32.20
2013,03,20,13,07,43.50
2013,03,20,13,08,48.30
2013,03,20,13,09,27.40
2013,03,20,13,10,27.40
2013,03,20,13,11,27.40
2013,03,20,13,12,48.30
2013,03,20,13,13,35.40
2013,03,20,13,14,37.00
2013,03,20,13,15,35.40
2013,03,20,13,16,33.80
2013,03,20,13,17,29.00
2013,03,20,13,18,25.70
2013,03,20,13,19,51.50
2013,03,20,13,20,46.70
2013,03,20,13,21,32.20
2013,03,20,13,22,48.30
2013,03,20,13,23,14.50
2013,03,20,13,24,20.90
2013,03,20,13,25,17.70
2013,03,20,13,26,14.50
2013,03,20,13,27,29.00
2013,03,20,13,28,29.00
2013,03,20,13,29,22.50
2013,03,20,13,30,27.40
2013,03,20,13,31,43.50
2013,03,20,13,32,33.80
2013,03,20,13,33,25.70
2013,03,20,13,34,8.10
2013,03,20,13,35,11.30
2013,03,20,13,36,8.10
2013,03,20,13,37,14.50
2013,03,20,13,38,16.10
2013,03,20,13,39,9.60
2013,03,20,13,40,32.20
2013,03,20,13,41,16.10
2013,03,20,13,42,24.20
2013,03,20,13,43,22.50
2013,03,20,13,44,20.90
2013,03,20,13,45,20.90
2013,03,20,13,46,17.70
2013,03,20,13,47,19.30
2013,03,20,13,48,17.70
2013,03,20,13,49,16.10
2013,03,20,13,50,16.10
2013,03,20,13,51,25.70
2013,03,20,13,52,24.20
2013,03,20,13,53,27.40
2013,03,20,13,54,17.70
2013,03,20,13,55,22.50
2013,03,20,13,56,24.20
2013,03,20,13,57,54.70
2013,03,20,13,58,43.50
2013,03,20,13,59,25.70
2013,03,20,14,00,19.30
2013,03,20,14,01,22.50
2013,03,20,14,02,29.00
2013,03,20,14,03,20.90
2013,03,20,14,04,12.90
2013,03,20,14,05,22.50
2013,03,20,14,06,22.50
2013,03,20,14,07,12.90
2013,03,20,14,08,19.30
2013,03,20,14,09,41.80
2013,03,20,14,10,41.80
2013,03,20,14,11,41.80
2013,03,20,14,12,41.80
2013,03,20,14,13,41.80
2013,03,20,14,14,41.80
2013,03,20,14,15,41.80
2013,03,20,14,16,17.70
2013,03,20,14,17,32.20
2013,03,20,14,18,32.20
2013,03,20,14,19,37.00
2013,03,20,14,20,25.70
2013,03,20,14,21,20.90
2013,03,20,14,22,27.40
2013,03,20,14,23,12.90
2013,03,20,14,24,11.30
2013,03,20,14,25,8.10
2013,03,20,14,26,11.30
2013,03,20,14,27,14.50
2013,03,20,14,28,19.30
2013,03,20,14,29,19.30
2013,03,20,14,30,8.10
2013,03,20,14,31,14.50
2013,03,20,14,32,9.60
2013,03,20,14,33,6.40
2013,03,20,14,34,6.40
2013,03,20,14,35,14.50
2013,03,20,14,36,17.70
2013,03,20,14,37,14.50
2013,03,20,14,38,12.90
2013,03,20,14,39,20.90
2013,03,20,14,40,17.70
2013,03,20,14,41,8.10
2013,03,20,14,42,22.50
2013,03,20,14,43,22.50
2013,03,20,14,44,11.30
2013,03,20,14,45,9.60
2013,03,20,14,46,11.30
2013,03,20,14,47,12.90
2013,03,20,14,48,11.30
2013,03,20,14,49,17.70
2013,03,20,14,50,17.70
2013,03,20,14,51,20.90
2013,03,20,14,52,14.50
2013,03,20,14,53,11.30
2013,03,20,14,54,12.90
2013,03,20,14,55,20.90
2013,03,20,14,56,22.50
2013,03,20,14,57,12.90
2013,03,20,14,58,38.60
2013,03,20,14,59,38.60
2013,03,20,15,00,35.40
2013,03,20,15,01,40.20
2013,03,20,15,02,19.30
2013,03,20,15,03,14.50
2013,03,20,15,04,14.50
2013,03,20,15,05,20.90
2013,03,20,15,06,9.60
2013,03,20,15,07,11.30
2013,03,20,15,08,11.30
2013,03,20,15,09,14.50
2013,03,20,15,10,20.90
2013,03,20,15,11,24.20
2013,03,20,15,12,32.20
2013,03,20,15,13,24.20
2013,03,20,15,14,11.30
2013,03,20,15,15,12.90
2013,03,20,15,16,40.20
2013,03,20,15,17,41.80
2013,03,20,15,18,29.00
2013,03,20,15,19,45.10
2013,03,20,15,20,41.80
2013,03,20,15,21,22.50
2013,03,20,15,22,37.00
2013,03,20,15,23,32.20
2013,03,20,15,24,38.60
2013,03,20,15,25,33.80
2013,03,20,15,26,32.20
2013,03,20,15,27,24.20
2013,03,20,15,28,33.80
2013,03,20,15,29,40.20
2013,03,20,15,30,40.20
2013,03,20,15,31,41.80
2013,03,20,15,32,33.80
2013,03,20,15,33,45.10
2013,03,20,15,34,24.20
2013,03,20,15,35,20.90
2013,03,20,15,36,46.70
2013,03,20,15,37,27.40
2013,03,20,15,38,29.00
2013,03,20,15,39,29.00
2013,03,20,15,40,32.20
2013,03,20,15,41,29.00
2013,03,20,15,42,22.50
2013,03,20,15,43,40.20
2013,03,20,15,44,51.50
2013,03,20,15,45,43.50
2013,03,20,15,46,48.30
2013,03,20,15,47,49.90
2013,03,20,15,48,35.40
2013,03,20,15,49,22.50
2013,03,20,15,50,27.40
2013,03,20,15,51,35.40
2013,03,20,15,52,45.10
2013,03,20,15,53,45.10
2013,03,20,15,54,25.70
2013,03,20,15,55,41.80
2013,03,20,15,56,41.80
2013,03,20,15,57,22.50
2013,03,20,15,58,45.10
2013,03,20,15,59,32.20
2013,03,20,16,00,37.00
2013,03,20,16,01,32.20
2013,03,20,16,02,37.00
2013,03,20,16,03,43.50
2013,03,20,16,04,25.70
2013,03,20,16,05,19.30
2013,03,20,16,06,32.20
2013,03,20,16,07,20.90
2013,03,20,16,08,32.20
2013,03,20,16,09,49.90
2013,03,20,16,10,57.90
2013,03,20,16,11,56.30
2013,03,20,16,12,37.00
2013,03,20,16,13,40.20
2013,03,20,16,14,61.20
2013,03,20,16,15,40.20
2013,03,20,16,16,41.80
2013,03,20,16,17,29.00
2013,03,20,16,18,43.50
2013,03,20,16,19,40.20
2013,03,20,16,20,37.00
2013,03,20,16,21,29.00
2013,03,20,16,22,35.40
2013,03,20,16,23,54.70
2013,03,20,16,24,62.70
2013,03,20,16,25,61.20
2013,03,20,16,26,40.20
2013,03,20,16,27,48.30
2013,03,20,16,28,41.80
2013,03,20,16,29,53.10
2013,03,20,16,30,51.50
2013,03,20,16,31,66.00
2013,03,20,16,32,45.10
2013,03,20,16,33,32.20
2013,03,20,16,34,62.70
2013,03,20,16,35,67.60
2013,03,20,16,36,74.00
2013,03,20,16,37,62.70
2013,03,20,16,38,70.80
2013,03,20,16,39,57.90
2013,03,20,16,40,54.70
2013,03,20,16,41,57.90
2013,03,20,16,42,77.30
2013,03,20,16,43,37.00
2013,03,20,16,44,46.70
2013,03,20,16,45,53.10
2013,03,20,16,46,37.00
2013,03,20,16,47,56.30
2013,03,20,16,48,49.90
2013,03,20,16,49,62.70
2013,03,20,16,50,54.70
2013,03,20,16,51,43.50
2013,03,20,16,52,45.10
2013,03,20,16,53,53.10
2013,03,20,16,54,59.50
2013,03,20,16,55,57.90
2013,03,20,16,56,38.60
2013,03,20,16,57,48.30
2013,03,20,16,58,49.90
2013,03,20,16,59,43.50
2013,03,20,17,00,64.40
2013,03,20,17,01,61.20
2013,03,20,17,02,54.70
2013,03,20,17,03,37.00
2013,03,20,17,04,45.10
2013,03,20,17,05,46.70
2013,03,20,17,06,48.30
2013,03,20,17,07,49.90
2013,03,20,17,08,35.40
2013,03,20,17,09,40.20
2013,03,20,17,10,49.90
2013,03,20,17,11,37.00
2013,03,20,17,12,35.40
2013,03,20,17,13,32.20
2013,03,20,17,14,41.80
2013,03,20,17,15,29.00
2013,03,20,17,16,22.50
2013,03,20,17,17,41.80
2013,03,20,17,18,30.60
2013,03,20,17,19,37.00
2013,03,20,17,20,37.00